Change the Weather History Date:

Thursday, October 6, 2011

  Actual Average Record
Temperature  
Mean Temperature 58 °F 49 °F  
Max Temperature 68 °F 64 °F 84 °F (1960)
Min Temperature 48 °F 34 °F 10 °F (1952)
Degree Days  
Heating Degree Days 7 16  
Month to date heating degree days 7 90  
Since 1 July heating degree days 153 393  
Cooling Degree Days 0 0  
Month to date cooling degree days 12 0  
Year to date cooling degree days 511 418  
Growing Degree Days 7 (Base 50)    
Moisture  
Dew Point 45 °F    
Average Humidity 64    
Maximum Humidity 89    
Minimum Humidity 39    
Precipitation  
Precipitation 0.74 in 0.06 in 0.88 in (1994)
Month to date precipitation 0.74 0.35  
Year to date precipitation 14.06 11.83  
Sea Level Pressure  
Sea Level Pressure 29.41 in    
Wind  
Wind Speed 10 mph (NW)    
Max Wind Speed 28 mph    
Max Gust Speed 35 mph    
Visibility 9 miles    
Events Rain , Thunderstorm    
T = Trace of Precipitation, MM = Missing Value Source: NWS Daily Summary

Daily Weather History Graph

Daily Weather History Graph

Search for Another Location

Airport or City:

Trip Planner

Search our weather history database for the weather conditions in past years. The results will help you decide how hot, cold, wet, or windy it might be!

Date:

Astronomy

Oct. 06, 2011 Rise Set
Actual Time 7:11 AM MDT 6:39 PM MDT
Civil Twilight 6:42 AM MDT 7:08 PM MDT
Nautical Twilight 6:08 AM MDT 7:42 PM MDT
Astronomical Twilight 5:34 AM MDT 8:16 PM MDT
Moon 4:05 PM MDT (10/6) 1:50 AM MDT (10/6)
Length of Visible Light 12h 26m
Length of Day
11h 27m
Waxing Gibbous, 76% of the Moon is Illuminated
Oct 6
Waxing Gibbous
Oct 11
Full
Oct 19
Last Quarter
Oct 26
New
Nov 2
First Quarter

Hourly Weather History & Observations

Time (MDT) Temp. Dew Point Humidity Pressure Visibility Wind Dir Wind Speed Gust Speed Precip Events Conditions
12:53 AM 61.0 °F 35.1 °F 38% 29.32 in 10.0 mi NNE 8.1 mph - N/A   Clear
1:53 AM 61.0 °F 35.1 °F 38% 29.30 in 10.0 mi NNE 10.4 mph - N/A   Clear
2:53 AM 55.9 °F 36.0 °F 47% 29.33 in 10.0 mi WNW 4.6 mph - N/A   Clear
3:53 AM 57.0 °F 36.0 °F 45% 29.33 in 10.0 mi NNE 5.8 mph - N/A   Clear
4:53 AM 54.0 °F 37.0 °F 53% 29.34 in 10.0 mi NW 6.9 mph - N/A   Partly Cloudy
5:53 AM 54.0 °F 36.0 °F 51% 29.35 in 10.0 mi WNW 8.1 mph - N/A   Clear
6:53 AM 57.0 °F 41.0 °F 55% 29.36 in 10.0 mi West 13.8 mph - N/A   Clear
7:53 AM 57.9 °F 42.1 °F 56% 29.37 in 10.0 mi West 10.4 mph - N/A   Scattered Clouds
8:53 AM 59.0 °F 42.1 °F 53% 29.37 in 10.0 mi WNW 8.1 mph - N/A   Mostly Cloudy
9:53 AM 64.0 °F 43.0 °F 46% 29.37 in 10.0 mi NW 9.2 mph - N/A   Scattered Clouds
10:53 AM 64.0 °F 42.1 °F 45% 29.38 in 10.0 mi NW 10.4 mph - N/A   Overcast
11:53 AM 66.0 °F 42.1 °F 42% 29.37 in 10.0 mi NW 8.1 mph - N/A   Mostly Cloudy
12:53 PM 66.0 °F 42.1 °F 42% 29.38 in 10.0 mi NW 5.8 mph - 0.00 in   Overcast
1:53 PM 61.0 °F 46.9 °F 60% 29.39 in 10.0 mi WNW 15.0 mph - 0.00 in Rain Light Rain
2:53 PM 62.6 °F 46.4 °F 55% 29.48 in 10.0 mi WNW 11.5 mph - N/A   Overcast
3:53 PM 61.0 °F 48.0 °F 62% 29.42 in 10.0 mi ENE 8.1 mph - N/A   Overcast
4:53 PM 59.0 °F 48.9 °F 69% 29.43 in 8.0 mi ENE 8.1 mph - 0.01 in Rain Rain
5:18 PM 57.2 °F 51.8 °F 82% 29.49 in 9.0 mi Calm Calm - 0.06 in Rain , Thunderstorm Light Thunderstorms and Rain
5:53 PM 54.0 °F 50.0 °F 86% 29.46 in 8.0 mi WSW 8.1 mph - 0.09 in Rain , Thunderstorm Light Thunderstorms and Rain
6:21 PM 53.6 °F 51.8 °F 94% 29.48 in 7.0 mi West 6.9 mph - 0.02 in Rain Rain
6:53 PM 53.1 °F 50.0 °F 89% 29.43 in 10.0 mi West 15.0 mph - 0.03 in   Overcast
7:53 PM 54.0 °F 50.0 °F 86% 29.43 in 10.0 mi NW 11.5 mph - N/A   Overcast
8:02 PM 53.6 °F 51.8 °F 94% 29.47 in 10.0 mi NNW 9.2 mph - N/A Thunderstorm Overcast
8:15 PM 53.6 °F 51.8 °F 94% 29.48 in 10.0 mi NNW 10.4 mph - N/A Thunderstorm Overcast
8:40 PM 53.6 °F 48.2 °F 82% 29.48 in 10.0 mi NW 15.0 mph - N/A   Overcast
8:53 PM 53.1 °F 48.9 °F 86% 29.43 in 10.0 mi NW 13.8 mph - N/A   Overcast
9:29 PM 53.6 °F 48.2 °F 82% 29.47 in 10.0 mi NW 19.6 mph - N/A Thunderstorm Overcast
9:46 PM 48.2 °F 44.6 °F 87% 29.49 in 3.0 mi SE 16.1 mph 20.7 mph 0.14 in Rain , Thunderstorm Heavy Rain
9:53 PM 48.9 °F 43.0 °F 80% 29.44 in 2.5 mi South 16.1 mph 23.0 mph 0.26 in Rain , Thunderstorm Heavy Rain
9:58 PM 48.2 °F 44.6 °F 87% 29.49 in 4.0 mi South 15.0 mph - 0.03 in Rain , Thunderstorm Heavy Rain
10:48 PM 48.2 °F 44.6 °F 87% 29.41 in 6.0 mi West 20.7 mph 34.5 mph 0.12 in Rain Light Rain
10:53 PM 48.9 °F 45.0 °F 86% 29.36 in 9.0 mi WSW 11.5 mph 29.9 mph 0.13 in Rain Light Rain
11:53 PM 48.9 °F 46.0 °F 90% 29.37 in 8.0 mi WNW 10.4 mph - 0.01 in Rain Rain